Regional Weather Roundup
Issued by NWS

Home | Current Version | Previous Version | Graphics & Text | Print | Product List | Glossary On
Versions: 1 2 3 4 5 6 7 8 9 10 11 12 13 14 15 16 17 18 19 20 21 22 23 24 25 26 27 28 29 30 31 32 33 34 35 36 37 38 39 40 41 42 43 44 45 46 47 48 49 50
092
ASUS43 KLMK 302202
RWRKY
KENTUCKY REGIONAL WEATHER ROUNDUP
NATIONAL WEATHER SERVICE LOUISVILLE KY
600 PM EDT SAT APR 30 2016

NOTE "FAIR" INDICATES FEW OR NO CLOUDS BELOW 12,000 FEET
WITH NO SIGNIFICANT WEATHER AND/OR OBSTRUCTIONS TO VISIBILITY.

KYZ001>023-026-027-061>063-070>075-302300-
WESTERN AND SOUTH CENTRAL KENTUCKY

CITY           SKY/WX    TMP DP  RH WIND       PRES   REMARKS
PADUCAH        CLOUDY    72  62  71 S9        29.80R
HENDERSON      CLOUDY    70  63  78 S8        29.81S
OWENSBORO      CLOUDY    70  65  84 S10       29.85S
HOPKINSVILLE   CLOUDY    69  64  84 S6        29.85F
BOWLING GREEN  LGT RAIN  72  64  76 SW7       29.88R
GLASGOW        NOT AVBL
$$

KYZ024-025-028>034-038-045-046-053-302300-
NORTH CENTRAL KENTUCKY

CITY           SKY/WX    TMP DP  RH WIND       PRES   REMARKS
LOUISVILLE/SDF CLOUDY    67  61  81 SW3       29.88S
LOUISVILLE/LOU PTSUNNY   67  61  81 S3        29.89S
FORT KNOX      PTSUNNY   68  62  79 S6        29.87R
$$

KYZ035>037-039>044-047>052-055>060-089>105-302300-
NORTHEAST KENTUCKY

CITY           SKY/WX    TMP DP  RH WIND       PRES   REMARKS
LEXINGTON      PTSUNNY   63  59  87 SE12      29.91S
COVINGTON      CLOUDY    60  58  92 SE8       29.93R
FRANKFORT      CLOUDY    65  59  81 SE9       29.89R
$$

KYZ054-064>069-076>088-106>120-302300-
SOUTHEAST KENTUCKY

CITY           SKY/WX    TMP DP  RH WIND       PRES   REMARKS
JACKSON        CLOUDY    61  58  90 VRB5      29.98F
LONDON         CLOUDY    64  59  83 E5        29.95S
SOMERSET       NOT AVBL
MIDDLESBORO    NOT AVBL
MONTICELLO     CLOUDY    66  62  87 E8        29.93F
$$





USA.gov is the U.S. government's official web portal to all federal, state and local government web resources and services.